Wetterdaten: aktuell Dienstag, 20.08.2019 00:40
Datum Zeit Temp 2m Wasser SB Wasser NSB Temp 2m ob Temp 10cm Feuchte 2 m Regen Wind mittel Richtung Richtung Taupunkt Windben
20.08.2019 00:40 13,8 C 21,8 C 21,7 C 12,9 C 13,3 C 80 % 0,0 l/m 0,0 km/h O 90 10,4 C 0,0 km/h
20.08.2019 00:35 13,9 C 21,8 C 21,8 C 13,0 C 13,3 C 80 % 0,0 l/m 0,5 km/h SO 135 10,5 C 0,0 km/h
20.08.2019 00:30 13,9 C 21,8 C 21,9 C 12,9 C 13,3 C 80 % 0,0 l/m 0,5 km/h O-NO 67 10,5 C 0,0 km/h
20.08.2019 00:25 13,9 C 21,8 C 21,7 C 12,8 C 13,2 C 80 % 0,0 l/m 0,3 km/h O 90 10,5 C 2,9 km/h
20.08.2019 00:20 13,9 C 21,8 C 21,9 C 12,9 C 13,3 C 79 % 0,0 l/m 0,0 km/h O-NO 67 10,3 C 0,0 km/h
20.08.2019 00:15 14,0 C 21,8 C 21,9 C 13,2 C 13,7 C 79 % 0,0 l/m 0,0 km/h O-SO 112 10,4 C 0,0 km/h
20.08.2019 00:10 14,3 C 21,9 C 21,9 C 13,2 C 13,7 C 79 % 0,0 l/m 0,0 km/h O-NO 67 10,7 C 0,0 km/h
20.08.2019 00:05 14,3 C 21,9 C 21,9 C 13,2 C 13,7 C 79 % 0,0 l/m 0,0 km/h O-NO 67 10,7 C 0,0 km/h
20.08.2019 00:00 14,3 C 21,9 C 22,0 C 13,3 C 13,8 C 79 % 0,0 l/m 0,0 km/h S-SO 157 10,7 C 0,0 km/h
19.08.2019 23:55 14,3 C 21,9 C 21,8 C 13,2 C 13,7 C 79 % 0,0 l/m 0,6 km/h O-NO 67 10,7 C 0,0 km/h
19.08.2019 23:50 14,3 C 21,8 C 21,7 C 13,2 C 13,7 C 79 % 0,0 l/m 0,6 km/h O-NO 67 10,7 C 1,6 km/h
19.08.2019 23:45 14,3 C 21,9 C 21,6 C 13,2 C 13,7 C 79 % 0,0 l/m 0,0 km/h O-SO 112 10,7 C 0,0 km/h
19.08.2019 23:40 14,3 C 21,9 C 21,6 C 13,3 C 13,7 C 79 % 0,0 l/m 0,0 km/h O-NO 67 10,7 C 0,0 km/h
19.08.2019 23:35 14,4 C 21,9 C 21,7 C 13,4 C 13,8 C 79 % 0,0 l/m 0,0 km/h S-SO 157 10,8 C 0,0 km/h
19.08.2019 23:30 14,4 C 21,9 C 22,3 C 13,4 C 13,8 C 79 % 0,0 l/m 0,0 km/h O-NO 67 10,8 C 0,0 km/h
19.08.2019 23:25 14,5 C 21,9 C 22,4 C 13,4 C 13,9 C 78 % 0,0 l/m 0,0 km/h O-SO 112 10,7 C 1,9 km/h
19.08.2019 23:20 14,5 C 22,0 C 22,3 C 13,5 C 13,9 C 78 % 0,0 l/m 0,0 km/h SO 135 10,7 C 0,0 km/h
19.08.2019 23:15 14,6 C 22,0 C 22,1 C 13,6 C 14,0 C 78 % 0,0 l/m 0,0 km/h O-SO 112 10,8 C 0,0 km/h
19.08.2019 23:10 14,7 C 22,0 C 22,1 C 13,7 C 14,1 C 78 % 0,0 l/m 0,0 km/h O-NO 67 10,9 C 0,0 km/h
19.08.2019 23:05 14,8 C 22,0 C 22,1 C 13,8 C 14,2 C 78 % 0,0 l/m 0,0 km/h O-SO 112 11,0 C 0,0 km/h
19.08.2019 23:00 14,8 C 22,0 C 22,0 C 13,9 C 14,3 C 78 % 0,0 l/m 0,8 km/h O-SO 112 11,0 C 0,0 km/h
19.08.2019 22:55 14,9 C 22,0 C 22,0 C 14,0 C 14,3 C 78 % 0,0 l/m 1,9 km/h SO 135 11,1 C 0,0 km/h
19.08.2019 22:50 15,0 C 22,0 C 21,9 C 14,1 C 14,4 C 78 % 0,0 l/m 2,1 km/h O-SO 112 11,2 C 2,3 km/h
19.08.2019 22:45 15,1 C 22,0 C 21,9 C 14,2 C 14,5 C 78 % 0,0 l/m 1,0 km/h O 90 11,3 C 4,0 km/h
19.08.2019 22:40 15,1 C 22,0 C 21,9 C 14,3 C 14,6 C 77 % 0,0 l/m 1,3 km/h O 90 11,1 C 0,0 km/h
19.08.2019 22:35 15,2 C 22,0 C 22,0 C 14,3 C 14,7 C 77 % 0,0 l/m 1,6 km/h SO 135 11,2 C 0,0 km/h
_ Min-Zeit 00:40 07:00 08:25 00:25 00:25 15:15 - 01:10 - - 00:20 01:00
Minimum _ 13,8 C 21,1 C 19,8 C 12,8 C 13,2 C 56 % - 0,0 km/h - - 10,3 C 0,0 km/h
_ Max-Zeit 14:40 14:35 15:05 14:40 14:40 07:40 01:00 14:30 - - 09:55 14:30
Maximum _ 22,5 C 22,5 C 23,3 C 27,5 C 24,3 C 92 % 0,0 l/m 10,3 km/h
W-SW
- - 15,9 C 19,0 km/h
W-SW
Durchschnitt _ 17,9 C 21,8 C 21,9 C 18,9 C 18,0 C 76 % #0,0 l/m 2,5 km/h W - 13,4 C 3,4 km/h